DLH653 HECA-EDDF

Flight info

Callsign DLH653
Flight time 3h 54m
Altitude 32000
Route MENKU L617 NOZ L551 ANTAR N133 AKINA UN133 GIKAS DCT BOSNA L604 GOLVA DCT WIMMI DCT MEDEL DCT SUBEN T161 DEBHI DEBHI1B
Aircraft A306/H-SDE3FGHIRWY/LB1

Departure

Time 2026-05-06 13:27
Airport Cairo International Airport (HECA)

Arrival

Time 2026-05-06 17:21
Airport Frankfurt Main Airport (EDDF)
Time Latitude Longitude Altitude Speed Heading
2026-05-06 13:04 30.10744 31.39696 380 ft 0 kts 255°
2026-05-06 13:19 30.10744 31.39698 380 ft 2 kts 255°
2026-05-06 13:19 30.10750 31.39720 380 ft 3 kts 256°
2026-05-06 13:19 30.10755 31.39743 380 ft 3 kts 255°
2026-05-06 13:20 30.10760 31.39765 380 ft 3 kts 251°
2026-05-06 13:20 30.10765 31.39779 380 ft 1 kts 225°
2026-05-06 13:20 30.10771 31.39784 380 ft 1 kts 182°
2026-05-06 13:20 30.10779 31.39784 380 ft 1 kts 168°
2026-05-06 13:21 30.10784 31.39782 380 ft 0 kts 167°
2026-05-06 13:22 30.10769 31.39787 380 ft 6 kts 166°
2026-05-06 13:22 30.10710 31.39805 380 ft 12 kts 164°
2026-05-06 13:22 30.10612 31.39838 380 ft 15 kts 162°
2026-05-06 13:23 30.10515 31.39869 380 ft 13 kts 165°
2026-05-06 13:23 30.10431 31.39877 380 ft 11 kts 193°
2026-05-06 13:23 30.10380 31.39827 380 ft 9 kts 232°
2026-05-06 13:23 30.10337 31.39763 380 ft 13 kts 231°
2026-05-06 13:24 30.10267 31.39671 380 ft 16 kts 229°
2026-05-06 13:24 30.10196 31.39581 380 ft 14 kts 223°
2026-05-06 13:24 30.10121 31.39597 380 ft 11 kts 136°
2026-05-06 13:24 30.10052 31.39666 380 ft 16 kts 138°
2026-05-06 13:25 30.10002 31.39775 380 ft 15 kts 95°
2026-05-06 13:25 30.10014 31.39889 377 ft 14 kts 62°
2026-05-06 13:25 30.10077 31.39972 376 ft 13 kts 49°
2026-05-06 13:25 30.10126 31.40036 378 ft 9 kts 49°
2026-05-06 13:26 30.10169 31.40092 379 ft 14 kts 49°
2026-05-06 13:26 30.10312 31.40283 380 ft 58 kts 49°
2026-05-06 13:26 30.10687 31.40783 378 ft 107 kts 49°
2026-05-06 13:26 30.11274 31.41564 380 ft 149 kts 49°
2026-05-06 13:27 30.12026 31.42565 586 ft 170 kts 49°
2026-05-06 13:27 30.12726 31.43644 1140 ft 171 kts 58°
2026-05-06 13:27 30.13321 31.44914 1515 ft 190 kts 53°
2026-05-06 13:27 30.14167 31.46224 1829 ft 217 kts 49°
2026-05-06 13:28 30.15173 31.47630 2260 ft 234 kts 49°
2026-05-06 13:28 30.16382 31.48939 2776 ft 245 kts 29°
2026-05-06 13:28 30.18012 31.49565 3382 ft 252 kts
2026-05-06 13:28 30.19717 31.49134 4029 ft 258 kts 330°
2026-05-06 13:29 30.21163 31.47909 4820 ft 260 kts 318°
2026-05-06 13:29 30.22421 31.46391 5591 ft 262 kts 311°
2026-05-06 13:29 30.23559 31.44753 6444 ft 261 kts 308°
2026-05-06 13:29 30.24684 31.43088 7132 ft 265 kts 309°
2026-05-06 13:30 30.25844 31.41412 7876 ft 268 kts 309°
2026-05-06 13:30 30.27049 31.39753 8626 ft 271 kts 311°
2026-05-06 13:30 30.28303 31.38106 9359 ft 274 kts 310°
2026-05-06 13:30 30.29553 31.36429 10090 ft 277 kts 310°
2026-05-06 13:31 30.30838 31.34714 10537 ft 290 kts 310°
2026-05-06 13:31 30.32198 31.32900 10780 ft 307 kts 310°
2026-05-06 13:31 30.33634 31.30988 11006 ft 323 kts 310°
2026-05-06 13:31 30.35142 31.28983 11240 ft 338 kts 310°
2026-05-06 13:32 30.36723 31.26897 11474 ft 351 kts 310°
2026-05-06 13:32 30.38368 31.24731 11719 ft 362 kts 310°
2026-05-06 13:32 30.40043 31.22528 12129 ft 367 kts 310°
2026-05-06 13:32 30.41737 31.20299 12619 ft 370 kts 310°
2026-05-06 13:33 30.43441 31.18050 13131 ft 373 kts 310°
2026-05-06 13:33 30.45151 31.15787 13649 ft 374 kts 310°
2026-05-06 13:33 30.46874 31.13507 14108 ft 376 kts 310°
2026-05-06 13:33 30.48582 31.11249 14528 ft 379 kts 310°
2026-05-06 13:34 30.50325 31.08943 14956 ft 381 kts 310°
2026-05-06 13:34 30.52078 31.06623 15397 ft 384 kts 310°
2026-05-06 13:34 30.53841 31.04286 15833 ft 386 kts 310°
2026-05-06 13:34 30.55638 31.01903 16283 ft 388 kts 310°
2026-05-06 13:35 30.57422 30.99535 16717 ft 391 kts 310°
2026-05-06 13:35 30.59217 30.97152 17155 ft 393 kts 309°
2026-05-06 13:35 30.60994 30.94790 17595 ft 396 kts 310°
2026-05-06 13:35 30.62808 30.92379 18040 ft 397 kts 309°
2026-05-06 13:36 30.64631 30.89953 18445 ft 400 kts 309°
2026-05-06 13:36 30.66464 30.87511 18791 ft 402 kts 309°
2026-05-06 13:36 30.68313 30.85047 19109 ft 405 kts 309°
2026-05-06 13:36 30.70165 30.82579 19461 ft 407 kts 309°
2026-05-06 13:37 30.72030 30.80091 19797 ft 409 kts 309°
2026-05-06 13:37 30.73905 30.77588 20138 ft 412 kts 309°
2026-05-06 13:37 30.75790 30.75070 20480 ft 414 kts 309°
2026-05-06 13:37 30.77685 30.72539 20812 ft 416 kts 309°
2026-05-06 13:38 30.79597 30.69981 21145 ft 418 kts 309°
2026-05-06 13:38 30.81509 30.67421 21498 ft 420 kts 309°
2026-05-06 13:38 30.83401 30.64888 21855 ft 421 kts 309°
2026-05-06 13:38 30.85331 30.62302 22163 ft 423 kts 309°
2026-05-06 13:39 30.87267 30.59706 22471 ft 426 kts 309°
2026-05-06 13:39 30.89212 30.57095 22797 ft 428 kts 308°
2026-05-06 13:39 30.91162 30.54476 23101 ft 430 kts 308°
2026-05-06 13:39 30.93126 30.51837 23402 ft 432 kts 308°
2026-05-06 13:40 30.95099 30.49184 23690 ft 434 kts 308°
2026-05-06 13:40 30.97081 30.46517 23945 ft 436 kts 308°
2026-05-06 13:40 30.99068 30.43842 24217 ft 437 kts 308°
2026-05-06 13:40 31.01058 30.41161 24502 ft 438 kts 308°
2026-05-06 13:41 31.03052 30.38473 24754 ft 439 kts 308°
2026-05-06 13:41 31.05052 30.35776 25000 ft 440 kts 308°
2026-05-06 13:41 31.07027 30.33045 25250 ft 440 kts 305°
2026-05-06 13:41 31.08723 30.30083 25502 ft 439 kts 297°
2026-05-06 13:42 31.10009 30.26863 25740 ft 438 kts 290°
2026-05-06 13:42 31.11068 30.23530 25975 ft 438 kts 288°
2026-05-06 13:42 31.12035 30.20150 26196 ft 439 kts 287°
2026-05-06 13:42 31.12955 30.16750 26429 ft 440 kts 286°
2026-05-06 13:43 31.13859 30.13339 26650 ft 441 kts 286°
2026-05-06 13:43 31.14764 30.09916 26880 ft 442 kts 286°
2026-05-06 13:43 31.15676 30.06491 27112 ft 442 kts 286°
2026-05-06 13:43 31.16660 30.03085 27324 ft 444 kts 290°
2026-05-06 13:44 31.17975 29.99815 27539 ft 447 kts 297°
2026-05-06 13:44 31.18506 29.98760 27604 ft 448 kts 300°
2026-05-06 13:44 31.21796 29.94065 28001 ft 452 kts 314°
2026-05-06 13:44 31.24268 29.91779 28314 ft 455 kts 323°
2026-05-06 13:45 31.26977 29.89867 28668 ft 454 kts 326°
2026-05-06 13:45 31.32521 29.86362 29275 ft 453 kts 328°
2026-05-06 13:45 31.35279 29.84678 29559 ft 452 kts 328°
2026-05-06 13:46 31.38062 29.82977 29856 ft 451 kts 328°
2026-05-06 13:46 31.40832 29.81270 30151 ft 449 kts 328°
2026-05-06 13:46 31.43627 29.79536 30409 ft 448 kts 328°
2026-05-06 13:46 31.46338 29.77842 30633 ft 447 kts 328°
2026-05-06 13:47 31.49109 29.76104 30870 ft 446 kts 328°
2026-05-06 13:47 31.51813 29.74405 31097 ft 446 kts 328°
2026-05-06 13:47 31.54572 29.72668 31349 ft 445 kts 327°
2026-05-06 13:47 31.57295 29.70954 31593 ft 444 kts 327°
2026-05-06 13:48 31.60012 29.69243 31826 ft 443 kts 327°
2026-05-06 13:48 31.62723 29.67534 32047 ft 442 kts 327°
2026-05-06 13:48 31.68109 29.64140 32125 ft 434 kts 327°
2026-05-06 13:49 31.73403 29.60800 32124 ft 431 kts 327°
2026-05-06 13:49 31.78647 29.57481 32124 ft 431 kts 327°
2026-05-06 13:50 31.83964 29.54114 32124 ft 431 kts 327°
2026-05-06 13:50 31.89199 29.50795 32123 ft 431 kts 327°
2026-05-06 13:51 31.94474 29.47448 32125 ft 431 kts 327°
2026-05-06 13:51 31.99747 29.44097 32126 ft 431 kts 327°
2026-05-06 13:52 32.05019 29.40742 32125 ft 431 kts 327°
2026-05-06 13:52 32.10292 29.37382 32121 ft 431 kts 327°
2026-05-06 13:53 32.15563 29.34020 32124 ft 429 kts 327°
2026-05-06 13:53 32.20794 29.30678 32124 ft 429 kts 327°
2026-05-06 13:54 32.26052 29.27312 32122 ft 429 kts 327°
2026-05-06 13:54 32.31274 29.23963 32126 ft 429 kts 328°
2026-05-06 13:55 32.36516 29.20597 32121 ft 428 kts 328°
2026-05-06 13:55 32.41728 29.17246 32121 ft 428 kts 328°
2026-05-06 13:56 32.46968 29.13872 32119 ft 428 kts 328°
2026-05-06 13:56 32.52202 29.10498 32121 ft 428 kts 328°
2026-05-06 13:57 32.57406 29.07139 32121 ft 428 kts 328°
2026-05-06 13:57 32.62660 29.03743 32121 ft 428 kts 328°
2026-05-06 13:58 32.67867 29.00373 32135 ft 428 kts 328°
2026-05-06 13:58 32.73057 28.97011 32118 ft 425 kts 328°
2026-05-06 13:59 32.78262 28.93634 32118 ft 425 kts 328°
2026-05-06 13:59 32.83451 28.90261 32118 ft 424 kts 328°
2026-05-06 14:00 32.88619 28.86896 32121 ft 424 kts 328°
2026-05-06 14:00 32.93803 28.83519 32120 ft 424 kts 328°
2026-05-06 14:01 32.98971 28.80148 32111 ft 423 kts 328°
2026-05-06 14:01 33.04115 28.76788 32118 ft 422 kts 328°
2026-05-06 14:02 33.09253 28.73427 32112 ft 422 kts 328°
2026-05-06 14:02 33.14385 28.70065 32112 ft 422 kts 328°
2026-05-06 14:03 33.19539 28.66684 32112 ft 422 kts 328°
2026-05-06 14:03 33.24685 28.63305 32124 ft 422 kts 328°
2026-05-06 14:04 33.29810 28.59934 32115 ft 419 kts 328°
2026-05-06 14:04 33.34050 28.57142 32114 ft 419 kts 328°
2026-05-06 14:05 33.39160 28.53772 32114 ft 419 kts 328°
2026-05-06 14:05 33.44264 28.50401 32114 ft 419 kts 328°
2026-05-06 14:06 33.49367 28.47027 32116 ft 419 kts 328°
2026-05-06 14:06 33.54462 28.43653 32117 ft 418 kts 328°
2026-05-06 14:07 33.59541 28.40287 32111 ft 416 kts 328°
2026-05-06 14:07 33.64610 28.36922 32111 ft 416 kts 328°
2026-05-06 14:08 33.69680 28.33552 32114 ft 416 kts 328°
2026-05-06 14:08 33.74738 28.30185 32113 ft 416 kts 328°
2026-05-06 14:09 33.79828 28.26790 32128 ft 416 kts 328°
2026-05-06 14:09 33.84856 28.23411 32110 ft 415 kts 328°
2026-05-06 14:10 33.89885 28.20012 32114 ft 414 kts 328°
2026-05-06 14:10 33.94913 28.16609 32111 ft 415 kts 328°
2026-05-06 14:11 33.99939 28.13207 32111 ft 415 kts 328°
2026-05-06 14:11 34.05011 28.09766 32108 ft 422 kts 328°
2026-05-06 14:12 34.10148 28.06279 32101 ft 423 kts 328°
2026-05-06 14:12 34.15278 28.02794 32103 ft 423 kts 328°
2026-05-06 14:13 34.20404 27.99305 32101 ft 423 kts 328°
2026-05-06 14:13 34.25530 27.95812 32105 ft 423 kts 328°
2026-05-06 14:14 34.30655 27.92314 32105 ft 423 kts 328°
2026-05-06 14:14 34.35780 27.88810 32117 ft 423 kts 328°
2026-05-06 14:15 34.40901 27.85305 32106 ft 422 kts 328°
2026-05-06 14:15 34.46010 27.81802 32105 ft 422 kts 328°
2026-05-06 14:16 34.51123 27.78292 32094 ft 422 kts 328°
2026-05-06 14:16 34.56234 27.74774 32103 ft 422 kts 328°
2026-05-06 14:17 34.61342 27.71245 32104 ft 422 kts 328°
2026-05-06 14:17 34.66445 27.67713 32099 ft 421 kts 328°
2026-05-06 14:18 34.71531 27.64188 32102 ft 421 kts 328°
2026-05-06 14:18 34.76614 27.60660 32088 ft 421 kts 328°
2026-05-06 14:19 34.81697 27.57127 32103 ft 421 kts 328°
2026-05-06 14:19 34.86746 27.53614 32101 ft 421 kts 328°
2026-05-06 14:20 34.91828 27.50072 32093 ft 421 kts 328°
2026-05-06 14:20 34.96893 27.46537 32089 ft 419 kts 328°
2026-05-06 14:21 35.01964 27.42992 32107 ft 420 kts 328°
2026-05-06 14:21 35.07034 27.39444 32102 ft 420 kts 328°
2026-05-06 14:22 35.12119 27.35879 32104 ft 421 kts 328°
2026-05-06 14:22 35.17171 27.32333 32090 ft 421 kts 328°
2026-05-06 14:23 35.22249 27.28764 32088 ft 420 kts 328°
2026-05-06 14:23 35.27321 27.25193 32108 ft 421 kts 328°
2026-05-06 14:24 35.32393 27.21617 32108 ft 421 kts 328°
2026-05-06 14:24 35.37464 27.18037 32110 ft 421 kts 328°
2026-05-06 14:25 35.42590 27.14546 32105 ft 424 kts 332°
2026-05-06 14:25 35.47925 27.11454 32118 ft 424 kts 333°
2026-05-06 14:26 35.53276 27.08443 32119 ft 423 kts 333°
2026-05-06 14:26 35.58598 27.05459 32114 ft 423 kts 333°
2026-05-06 14:27 35.63948 27.02448 32096 ft 423 kts 333°
2026-05-06 14:27 35.69298 26.99428 32094 ft 423 kts 333°
2026-05-06 14:28 35.74652 26.96398 32101 ft 421 kts 333°
2026-05-06 14:28 35.79964 26.93389 32102 ft 420 kts 333°
2026-05-06 14:29 35.85261 26.90382 32099 ft 420 kts 333°
2026-05-06 14:29 35.90560 26.87357 32099 ft 420 kts 333°
2026-05-06 14:30 35.95873 26.84311 32101 ft 423 kts 333°
2026-05-06 14:30 36.01218 26.81246 32101 ft 422 kts 333°
2026-05-06 14:31 36.06537 26.78194 32100 ft 421 kts 333°
2026-05-06 14:31 36.11816 26.75159 32099 ft 421 kts 333°
2026-05-06 14:32 36.17131 26.72098 32102 ft 421 kts 333°
2026-05-06 14:32 36.22442 26.69035 32102 ft 421 kts 333°
2026-05-06 14:33 36.27747 26.65971 32102 ft 419 kts 333°
2026-05-06 14:33 36.33053 26.62900 32102 ft 419 kts 333°
2026-05-06 14:34 36.37421 26.60368 32102 ft 419 kts 333°
2026-05-06 14:34 36.40062 26.58835 32102 ft 419 kts 333°
2026-05-06 14:35 36.53805 26.50841 32102 ft 421 kts 333°
2026-05-06 14:36 36.59115 26.47742 32102 ft 421 kts 333°
2026-05-06 14:36 36.64409 26.44645 32102 ft 421 kts 333°
2026-05-06 14:37 36.69708 26.41540 32102 ft 421 kts 333°
2026-05-06 14:37 36.75007 26.38430 32118 ft 421 kts 333°
2026-05-06 14:38 36.80291 26.35326 32100 ft 419 kts 333°
2026-05-06 14:38 36.85560 26.32226 32100 ft 419 kts 333°
2026-05-06 14:39 36.90828 26.29121 32105 ft 419 kts 333°
2026-05-06 14:39 36.96096 26.26011 32102 ft 419 kts 333°
2026-05-06 14:40 37.01363 26.22858 32099 ft 421 kts 332°
2026-05-06 14:40 37.06633 26.19640 32102 ft 420 kts 332°
2026-05-06 14:41 37.11843 26.16448 32100 ft 420 kts 332°
2026-05-06 14:41 37.17095 26.13233 32102 ft 420 kts 332°
2026-05-06 14:42 37.22346 26.10015 32104 ft 420 kts 332°
2026-05-06 14:42 37.27597 26.06795 32104 ft 419 kts 332°
2026-05-06 14:43 37.32822 26.03585 32100 ft 418 kts 332°
2026-05-06 14:43 37.38044 26.00372 32099 ft 418 kts 332°
2026-05-06 14:44 37.43265 25.97153 32097 ft 418 kts 332°
2026-05-06 14:45 37.51109 25.92309 32119 ft 420 kts 332°
2026-05-06 14:45 37.56353 25.89064 32099 ft 419 kts 332°
2026-05-06 14:46 37.61594 25.85817 32098 ft 419 kts 332°
2026-05-06 14:46 37.66826 25.82567 32097 ft 419 kts 332°
2026-05-06 14:47 37.72028 25.79330 32096 ft 419 kts 332°
2026-05-06 14:47 37.75530 25.77149 32097 ft 419 kts 332°
2026-05-06 14:48 37.82487 25.72808 32091 ft 419 kts 332°
2026-05-06 14:48 37.87739 25.69525 32091 ft 419 kts 332°
2026-05-06 14:49 37.92944 25.66266 32091 ft 419 kts 332°
2026-05-06 14:49 37.98195 25.62974 32082 ft 419 kts 332°
2026-05-06 14:50 38.03413 25.59696 32086 ft 420 kts 332°
2026-05-06 14:50 38.08661 25.56394 32086 ft 420 kts 332°
2026-05-06 14:51 38.13865 25.53116 32091 ft 420 kts 332°
2026-05-06 14:51 38.19108 25.49807 32091 ft 420 kts 332°
2026-05-06 14:52 38.24349 25.46494 32089 ft 420 kts 332°
2026-05-06 14:52 38.29581 25.43181 32089 ft 419 kts 332°
2026-05-06 14:53 38.34776 25.39886 32090 ft 419 kts 332°
2026-05-06 14:53 38.40003 25.36566 32089 ft 419 kts 332°
2026-05-06 14:54 38.45224 25.33244 32088 ft 419 kts 332°
2026-05-06 14:54 38.50416 25.29935 32089 ft 420 kts 332°
2026-05-06 14:55 38.55664 25.26585 32084 ft 420 kts 332°
2026-05-06 14:55 38.60900 25.23238 32086 ft 420 kts 332°
2026-05-06 14:56 38.66099 25.19909 32086 ft 420 kts 332°
2026-05-06 14:56 38.71337 25.16548 32086 ft 420 kts 332°
2026-05-06 14:57 38.76540 25.13205 32094 ft 420 kts 332°
2026-05-06 14:57 38.81756 25.09848 32086 ft 418 kts 332°
2026-05-06 14:58 38.86964 25.06491 32085 ft 418 kts 332°
2026-05-06 14:58 38.92131 25.03155 32086 ft 418 kts 332°
2026-05-06 14:59 38.97357 24.99775 32077 ft 419 kts 332°
2026-05-06 14:59 39.02558 24.96404 32084 ft 421 kts 332°
2026-05-06 15:00 39.07797 24.93006 32085 ft 420 kts 332°
2026-05-06 15:00 39.13000 24.89686 32086 ft 420 kts 333°
2026-05-06 15:01 39.18276 24.86424 32085 ft 420 kts 333°
2026-05-06 15:01 39.23553 24.83169 32085 ft 420 kts 333°
2026-05-06 15:02 39.28802 24.79916 32083 ft 420 kts 333°
2026-05-06 15:02 39.34071 24.76637 32083 ft 419 kts 333°
2026-05-06 15:03 39.39304 24.73374 32077 ft 419 kts 333°
2026-05-06 15:03 39.44564 24.70088 32078 ft 419 kts 333°
2026-05-06 15:04 39.49678 24.66472 32086 ft 418 kts 324°
2026-05-06 15:04 39.54051 24.61597 32078 ft 417 kts 317°
2026-05-06 15:05 39.58231 24.56354 32077 ft 417 kts 316°
2026-05-06 15:05 39.62366 24.51054 32075 ft 418 kts 316°
2026-05-06 15:06 39.65791 24.46671 32074 ft 418 kts 316°
2026-05-06 15:06 39.70652 24.40472 32072 ft 417 kts 316°
2026-05-06 15:07 39.74777 24.35212 32072 ft 419 kts 316°
2026-05-06 15:07 39.78242 24.30789 32075 ft 420 kts 316°
2026-05-06 15:08 39.83103 24.24569 32075 ft 419 kts 316°
2026-05-06 15:08 39.87250 24.19251 32075 ft 419 kts 316°
2026-05-06 15:09 39.90719 24.14797 32069 ft 419 kts 316°
2026-05-06 15:09 39.95556 24.08573 32072 ft 419 kts 316°
2026-05-06 15:10 39.99006 24.04125 32070 ft 420 kts 315°
2026-05-06 15:10 40.03176 23.98742 32072 ft 421 kts 315°
2026-05-06 15:11 40.07330 23.93370 32075 ft 421 kts 315°
2026-05-06 15:11 40.11505 23.87960 32072 ft 421 kts 315°
2026-05-06 15:12 40.15643 23.82587 32064 ft 421 kts 315°
2026-05-06 15:12 40.19819 23.77155 32065 ft 421 kts 315°
2026-05-06 15:13 40.23963 23.71756 32062 ft 422 kts 315°
2026-05-06 15:13 40.28117 23.66334 32064 ft 423 kts 315°
2026-05-06 15:14 40.32267 23.60908 32063 ft 423 kts 315°
2026-05-06 15:14 40.36443 23.55438 32061 ft 423 kts 315°
2026-05-06 15:15 40.40613 23.49965 32057 ft 423 kts 315°
2026-05-06 15:15 40.44760 23.44510 32058 ft 423 kts 315°
2026-05-06 15:16 40.48920 23.39030 32057 ft 424 kts 314°
2026-05-06 15:16 40.53088 23.33528 32052 ft 425 kts 314°
2026-05-06 15:17 40.57256 23.28017 32051 ft 425 kts 314°
2026-05-06 15:17 40.61421 23.22499 32055 ft 425 kts 314°
2026-05-06 15:18 40.65556 23.17010 32044 ft 425 kts 314°
2026-05-06 15:18 40.69716 23.11477 32046 ft 425 kts 314°
2026-05-06 15:19 40.73878 23.05930 32045 ft 426 kts 314°
2026-05-06 15:19 40.78051 23.00359 32041 ft 427 kts 314°
2026-05-06 15:20 40.82229 22.94772 32034 ft 427 kts 314°
2026-05-06 15:20 40.86400 22.89185 32036 ft 427 kts 314°
2026-05-06 15:21 40.90581 22.83571 32042 ft 427 kts 314°
2026-05-06 15:21 40.94727 22.77995 32027 ft 427 kts 313°
2026-05-06 15:22 40.98902 22.72416 32030 ft 428 kts 314°
2026-05-06 15:22 41.03066 22.66722 32028 ft 428 kts 313°
2026-05-06 15:23 41.07215 22.61102 32027 ft 428 kts 313°
2026-05-06 15:23 41.11404 22.55444 32031 ft 428 kts 313°
2026-05-06 15:24 41.15553 22.49820 32025 ft 428 kts 313°
2026-05-06 15:24 41.19712 22.44157 32026 ft 428 kts 313°
2026-05-06 15:25 41.23885 22.38454 32027 ft 430 kts 313°
2026-05-06 15:25 41.28039 22.32766 32025 ft 430 kts 313°
2026-05-06 15:26 41.32234 22.27043 32019 ft 431 kts 313°
2026-05-06 15:26 41.36397 22.21346 32016 ft 431 kts 313°
2026-05-06 15:27 41.40579 22.15604 32019 ft 431 kts 313°
2026-05-06 15:27 41.44729 22.09888 32018 ft 432 kts 312°
2026-05-06 15:28 41.48911 22.04117 32013 ft 432 kts 313°
2026-05-06 15:28 41.53090 21.98340 32013 ft 432 kts 312°
2026-05-06 15:29 41.57244 21.92588 32012 ft 432 kts 312°
2026-05-06 15:29 41.61423 21.86790 32012 ft 432 kts 312°
2026-05-06 15:30 41.65576 21.81017 32011 ft 432 kts 312°
2026-05-06 15:30 41.69746 21.75205 32021 ft 433 kts 312°
2026-05-06 15:31 41.73927 21.69365 32021 ft 434 kts 312°
2026-05-06 15:31 41.78090 21.63546 32012 ft 434 kts 312°
2026-05-06 15:32 41.84336 21.54787 31995 ft 434 kts 312°
2026-05-06 15:32 41.88517 21.48898 32012 ft 434 kts 312°
2026-05-06 15:33 41.92664 21.43062 32009 ft 433 kts 312°
2026-05-06 15:33 41.96830 21.37185 32016 ft 433 kts 312°
2026-05-06 15:34 42.00970 21.31331 32022 ft 433 kts 311°
2026-05-06 15:34 42.05128 21.25438 32018 ft 433 kts 311°
2026-05-06 15:35 42.09260 21.19566 32017 ft 433 kts 311°
2026-05-06 15:35 42.13420 21.13644 32029 ft 434 kts 311°
2026-05-06 15:36 42.17549 21.07759 32029 ft 436 kts 311°
2026-05-06 15:36 42.21731 21.01793 32030 ft 436 kts 311°
2026-05-06 15:37 42.25872 20.95856 32036 ft 435 kts 311°
2026-05-06 15:37 42.30026 20.89891 32036 ft 435 kts 311°
2026-05-06 15:38 42.34152 20.83960 32041 ft 434 kts 311°
2026-05-06 15:38 42.38292 20.77997 32041 ft 435 kts 310°
2026-05-06 15:39 42.42421 20.72023 32037 ft 437 kts 311°
2026-05-06 15:39 42.46570 20.66026 32036 ft 437 kts 311°
2026-05-06 15:40 42.50729 20.60002 32021 ft 437 kts 310°
2026-05-06 15:40 42.54860 20.54003 32032 ft 436 kts 310°
2026-05-06 15:41 42.59015 20.47955 32023 ft 436 kts 310°
2026-05-06 15:41 42.63142 20.41964 32015 ft 437 kts 310°
2026-05-06 15:42 42.67285 20.35904 32015 ft 437 kts 310°
2026-05-06 15:42 42.71426 20.29820 32010 ft 437 kts 310°
2026-05-06 15:43 42.74852 20.24783 32016 ft 438 kts 310°
2026-05-06 15:43 42.79694 20.17658 32010 ft 437 kts 310°
2026-05-06 15:44 42.83803 20.11593 32006 ft 438 kts 309°
2026-05-06 15:44 42.87948 20.05474 32009 ft 439 kts 309°
2026-05-06 15:45 42.92089 19.99348 31996 ft 439 kts 309°
2026-05-06 15:45 42.96216 19.93225 31995 ft 439 kts 309°
2026-05-06 15:46 43.00339 19.87094 32000 ft 439 kts 309°
2026-05-06 15:46 43.04455 19.80959 31993 ft 439 kts 309°
2026-05-06 15:47 43.08578 19.74805 31997 ft 440 kts 309°
2026-05-06 15:47 43.12730 19.68593 31977 ft 440 kts 309°
2026-05-06 15:48 43.16859 19.62399 31985 ft 440 kts 309°
2026-05-06 15:48 43.20958 19.56239 31988 ft 440 kts 309°
2026-05-06 15:49 43.24413 19.51036 31999 ft 440 kts 309°
2026-05-06 15:49 43.29199 19.43814 31998 ft 440 kts 309°
2026-05-06 15:50 43.32658 19.38583 32006 ft 442 kts 309°
2026-05-06 15:50 43.37457 19.31302 31987 ft 442 kts 309°
2026-05-06 15:51 43.41583 19.25037 31990 ft 442 kts 309°
2026-05-06 15:51 43.45701 19.18769 31982 ft 442 kts 309°
2026-05-06 15:52 43.49128 19.13539 31984 ft 443 kts 309°
2026-05-06 15:52 43.53256 19.07226 31988 ft 444 kts 309°
2026-05-06 15:53 43.57399 19.00880 31980 ft 444 kts 308°
2026-05-06 15:53 43.61505 18.94573 31986 ft 443 kts 309°
2026-05-06 15:54 43.66324 18.87155 31977 ft 444 kts 309°
2026-05-06 15:54 43.70430 18.80820 31985 ft 445 kts 309°
2026-05-06 15:55 43.73863 18.75510 31986 ft 445 kts 309°
2026-05-06 15:55 43.78684 18.68044 31978 ft 445 kts 309°
2026-05-06 15:56 43.82119 18.62709 31973 ft 445 kts 308°
2026-05-06 15:56 43.86226 18.56315 31978 ft 446 kts 308°
2026-05-06 15:57 43.90350 18.49884 31970 ft 445 kts 308°
2026-05-06 15:57 43.94451 18.43474 31975 ft 446 kts 308°
2026-05-06 15:58 43.98573 18.37018 31969 ft 446 kts 308°
2026-05-06 15:58 44.02664 18.30589 31967 ft 445 kts 308°
2026-05-06 15:59 44.06759 18.24142 31962 ft 446 kts 308°
2026-05-06 15:59 44.10872 18.17651 31946 ft 446 kts 308°
2026-05-06 16:00 44.14959 18.11190 31963 ft 445 kts 308°
2026-05-06 16:00 44.19051 18.04706 31956 ft 446 kts 308°
2026-05-06 16:01 44.23147 17.98206 31940 ft 446 kts 308°
2026-05-06 16:01 44.27238 17.91691 31934 ft 446 kts 308°
2026-05-06 16:02 44.31298 17.85210 31929 ft 446 kts 308°
2026-05-06 16:02 44.35394 17.78690 31929 ft 448 kts 310°
2026-05-06 16:03 44.40257 17.73064 31923 ft 454 kts 321°
2026-05-06 16:03 44.45458 17.68128 31924 ft 455 kts 323°
2026-05-06 16:04 44.50754 17.63267 31917 ft 455 kts 323°
2026-05-06 16:04 44.56050 17.58392 31924 ft 455 kts 323°
2026-05-06 16:05 44.61339 17.53490 31922 ft 457 kts 322°
2026-05-06 16:05 44.66603 17.48523 31903 ft 456 kts 322°
2026-05-06 16:06 44.71896 17.43588 31904 ft 456 kts 322°
2026-05-06 16:06 44.77189 17.38656 31906 ft 456 kts 322°
2026-05-06 16:07 44.82473 17.33705 31913 ft 456 kts 322°
2026-05-06 16:07 44.87758 17.28732 31911 ft 457 kts 322°
2026-05-06 16:08 44.93041 17.23749 31911 ft 457 kts 322°
2026-05-06 16:08 44.98322 17.18757 31912 ft 457 kts 322°
2026-05-06 16:09 45.03565 17.13789 31892 ft 457 kts 322°
2026-05-06 16:09 45.08839 17.08780 31911 ft 457 kts 321°
2026-05-06 16:10 45.14117 17.03753 31899 ft 457 kts 321°
2026-05-06 16:10 45.19394 16.98716 31904 ft 457 kts 321°
2026-05-06 16:11 45.24663 16.93674 31902 ft 457 kts 321°
2026-05-06 16:11 45.29937 16.88621 31907 ft 457 kts 321°
2026-05-06 16:12 45.35207 16.83563 31902 ft 456 kts 321°
2026-05-06 16:12 45.40470 16.78496 31905 ft 457 kts 321°
2026-05-06 16:13 45.45727 16.73424 31902 ft 457 kts 321°
2026-05-06 16:13 45.50988 16.68337 31901 ft 457 kts 321°
2026-05-06 16:14 45.56246 16.63242 31903 ft 457 kts 321°
2026-05-06 16:14 45.61504 16.58134 31912 ft 458 kts 320°
2026-05-06 16:15 45.66777 16.53000 31914 ft 458 kts 320°
2026-05-06 16:15 45.72040 16.47864 31923 ft 458 kts 320°
2026-05-06 16:16 45.77307 16.42713 31926 ft 458 kts 320°
2026-05-06 16:16 45.82566 16.37558 31926 ft 457 kts 320°
2026-05-06 16:17 45.87808 16.32407 31932 ft 457 kts 320°
2026-05-06 16:17 45.93275 16.27737 31929 ft 462 kts 325°
2026-05-06 16:18 45.98928 16.23213 31929 ft 462 kts 326°
2026-05-06 16:18 46.04525 16.18783 31923 ft 462 kts 326°
2026-05-06 16:19 46.10136 16.14327 31921 ft 460 kts 326°
2026-05-06 16:19 46.15739 16.09855 31928 ft 461 kts 325°
2026-05-06 16:20 46.21343 16.05364 31918 ft 461 kts 325°
2026-05-06 16:20 46.26945 16.00865 31918 ft 460 kts 325°
2026-05-06 16:21 46.32532 15.96372 31915 ft 460 kts 325°
2026-05-06 16:21 46.38127 15.91863 31914 ft 460 kts 325°
2026-05-06 16:22 46.43711 15.87358 31912 ft 460 kts 325°
2026-05-06 16:22 46.49298 15.82840 31927 ft 459 kts 324°
2026-05-06 16:23 46.54886 15.78304 31913 ft 460 kts 324°
2026-05-06 16:23 46.60466 15.73758 31910 ft 460 kts 324°
2026-05-06 16:24 46.66043 15.69205 31903 ft 459 kts 324°
2026-05-06 16:24 46.71344 15.64249 31901 ft 450 kts 314°
2026-05-06 16:25 46.75930 15.58090 31876 ft 447 kts 310°
2026-05-06 16:25 46.79653 15.52759 31870 ft 447 kts 309°
2026-05-06 16:26 46.84785 15.45305 31861 ft 447 kts 309°
2026-05-06 16:26 46.89199 15.38902 31857 ft 448 kts 309°
2026-05-06 16:27 46.93623 15.32491 31857 ft 448 kts 309°
2026-05-06 16:27 46.98049 15.26072 31858 ft 448 kts 309°
2026-05-06 16:28 47.02474 15.19634 31861 ft 447 kts 309°
2026-05-06 16:28 47.06877 15.13214 31864 ft 447 kts 309°
2026-05-06 16:29 47.11280 15.06780 31874 ft 447 kts 309°
2026-05-06 16:29 47.15679 15.00341 31881 ft 446 kts 309°
2026-05-06 16:30 47.19363 14.95000 31867 ft 448 kts 309°
2026-05-06 16:30 47.24510 14.87380 31860 ft 449 kts 308°
2026-05-06 16:31 47.28918 14.80842 31856 ft 450 kts 308°
2026-05-06 16:31 47.33330 14.74296 31851 ft 450 kts 308°
2026-05-06 16:32 47.37749 14.67743 31868 ft 451 kts 308°
2026-05-06 16:32 47.42300 14.61309 31854 ft 458 kts 313°
2026-05-06 16:33 47.47204 14.55367 31837 ft 460 kts 314°
2026-05-06 16:34 47.54706 14.46525 31823 ft 459 kts 314°
2026-05-06 16:34 47.59686 14.40632 31814 ft 458 kts 314°
2026-05-06 16:35 47.64657 14.34733 31799 ft 458 kts 314°
2026-05-06 16:35 47.69620 14.28803 31801 ft 458 kts 313°
2026-05-06 16:36 47.74588 14.22867 31778 ft 458 kts 314°
2026-05-06 16:36 47.79560 14.16919 31768 ft 459 kts 313°
2026-05-06 16:37 47.84544 14.10952 31747 ft 460 kts 313°
2026-05-06 16:37 47.88678 14.05982 31776 ft 460 kts 313°
2026-05-06 16:38 47.98774 13.93775 31756 ft 461 kts 313°
2026-05-06 16:39 48.02915 13.88754 31749 ft 461 kts 313°
2026-05-06 16:40 48.13815 13.75489 31763 ft 461 kts 312°
2026-05-06 16:40 48.18791 13.69405 31746 ft 462 kts 312°
2026-05-06 16:41 48.23615 13.63109 31747 ft 457 kts 308°
2026-05-06 16:41 48.28160 13.56464 31764 ft 456 kts 307°
2026-05-06 16:42 48.32663 13.49775 31751 ft 456 kts 307°
2026-05-06 16:42 48.37198 13.43104 31777 ft 456 kts 307°
2026-05-06 16:43 48.41678 13.36333 31753 ft 452 kts 302°
2026-05-06 16:43 48.44925 13.28559 31752 ft 435 kts 287°
2026-05-06 16:44 48.47283 13.20209 31752 ft 432 kts 284°
2026-05-06 16:44 48.49470 13.11780 31754 ft 432 kts 283°
2026-05-06 16:45 48.51646 13.03337 31767 ft 432 kts 283°
2026-05-06 16:45 48.53843 12.94871 31761 ft 434 kts 284°
2026-05-06 16:46 48.56049 12.86403 31748 ft 434 kts 284°
2026-05-06 16:46 48.58253 12.77917 31749 ft 434 kts 284°
2026-05-06 16:47 48.60450 12.69426 31757 ft 434 kts 284°
2026-05-06 16:47 48.62640 12.60928 31755 ft 434 kts 284°
2026-05-06 16:48 48.64822 12.52423 31751 ft 433 kts 284°
2026-05-06 16:48 48.66997 12.43919 31750 ft 433 kts 284°
2026-05-06 16:49 48.69163 12.35417 31754 ft 433 kts 284°
2026-05-06 16:49 48.71324 12.26901 31788 ft 433 kts 284°
2026-05-06 16:50 48.73404 12.18677 31758 ft 435 kts 284°
2026-05-06 16:50 48.75162 12.10049 31762 ft 427 kts 275°
2026-05-06 16:51 48.76236 12.01208 31769 ft 426 kts 273°
2026-05-06 16:51 48.77182 11.92365 31765 ft 425 kts 272°
2026-05-06 16:52 48.78109 11.83510 31782 ft 426 kts 273°
2026-05-06 16:52 48.79042 11.74636 31774 ft 426 kts 273°
2026-05-06 16:53 48.79977 11.65751 31772 ft 427 kts 273°
2026-05-06 16:53 48.80906 11.56865 31773 ft 426 kts 273°
2026-05-06 16:54 48.81824 11.47976 31771 ft 426 kts 273°
2026-05-06 16:54 48.82735 11.39083 31775 ft 427 kts 273°
2026-05-06 16:55 48.83715 11.30147 31765 ft 432 kts 277°
2026-05-06 16:55 48.85940 11.21547 31749 ft 447 kts 294°
2026-05-06 16:56 48.89981 11.14158 31754 ft 462 kts 308°
2026-05-06 16:56 48.94702 11.07477 31765 ft 465 kts 311°
2026-05-06 16:57 48.99511 11.00891 31775 ft 466 kts 311°
2026-05-06 16:57 49.04303 10.94242 31798 ft 466 kts 311°
2026-05-06 16:57 49.06682 10.90912 31691 ft 463 kts 311°
2026-05-06 16:58 49.09053 10.87580 30940 ft 462 kts 311°
2026-05-06 16:58 49.11394 10.84280 30422 ft 456 kts 310°
2026-05-06 16:58 49.13681 10.81047 29891 ft 452 kts 310°
2026-05-06 16:58 49.15975 10.77798 29108 ft 450 kts 310°
2026-05-06 16:59 49.18253 10.74564 28624 ft 443 kts 310°
2026-05-06 16:59 49.20465 10.71309 27930 ft 439 kts 308°
2026-05-06 16:59 49.21903 10.69067 27510 ft 436 kts 308°
2026-05-06 16:59 49.24678 10.64672 26765 ft 430 kts 308°
2026-05-06 17:00 49.26749 10.61381 26169 ft 428 kts 309°
2026-05-06 17:00 49.28817 10.58122 25601 ft 425 kts 310°
2026-05-06 17:00 49.30870 10.54909 25085 ft 421 kts 310°
2026-05-06 17:00 49.32898 10.51705 24521 ft 419 kts 310°
2026-05-06 17:01 49.34916 10.48497 24038 ft 415 kts 310°
2026-05-06 17:01 49.36756 10.45154 23632 ft 407 kts 304°
2026-05-06 17:01 49.38407 10.41635 23062 ft 405 kts 302°
2026-05-06 17:01 49.40010 10.38105 22634 ft 400 kts 302°
2026-05-06 17:02 49.41592 10.34616 22235 ft 395 kts 302°
2026-05-06 17:02 49.43152 10.31179 21836 ft 390 kts 302°
2026-05-06 17:02 49.44696 10.27781 21434 ft 385 kts 302°
2026-05-06 17:02 49.46220 10.24423 21044 ft 381 kts 302°
2026-05-06 17:03 49.47725 10.21105 20659 ft 376 kts 302°
2026-05-06 17:03 49.49212 10.17825 20270 ft 371 kts 302°
2026-05-06 17:03 49.50680 10.14583 19901 ft 367 kts 302°
2026-05-06 17:03 49.52132 10.11373 19518 ft 364 kts 302°
2026-05-06 17:04 49.53572 10.08184 19154 ft 360 kts 301°
2026-05-06 17:04 49.54999 10.05021 18802 ft 359 kts 301°
2026-05-06 17:04 49.56419 10.01869 18443 ft 357 kts 301°
2026-05-06 17:04 49.57832 9.98730 18072 ft 356 kts 301°
2026-05-06 17:05 49.59235 9.95609 17673 ft 352 kts 301°
2026-05-06 17:05 49.60625 9.92517 17324 ft 350 kts 301°
2026-05-06 17:05 49.62005 9.89438 16961 ft 349 kts 302°
2026-05-06 17:05 49.63385 9.86359 16596 ft 348 kts 302°
2026-05-06 17:06 49.64756 9.83294 16233 ft 346 kts 302°
2026-05-06 17:06 49.65216 9.82265 16117 ft 345 kts 302°
2026-05-06 17:06 49.67472 9.77216 15522 ft 342 kts 302°
2026-05-06 17:06 49.68362 9.75222 15297 ft 341 kts 302°
2026-05-06 17:07 49.70152 9.71205 14833 ft 338 kts 302°
2026-05-06 17:07 49.71480 9.68221 14480 ft 336 kts 302°
2026-05-06 17:07 49.72801 9.65249 14140 ft 334 kts 302°
2026-05-06 17:07 49.74114 9.62293 13804 ft 332 kts 302°
2026-05-06 17:08 49.75415 9.59356 13449 ft 331 kts 302°
2026-05-06 17:08 49.76712 9.56430 13108 ft 329 kts 302°
2026-05-06 17:08 49.77999 9.53520 12764 ft 327 kts 302°
2026-05-06 17:08 49.79280 9.50619 12433 ft 325 kts 302°
2026-05-06 17:09 49.80535 9.47780 12100 ft 323 kts 302°
2026-05-06 17:09 49.81800 9.44916 11770 ft 321 kts 302°
2026-05-06 17:09 49.83116 9.42138 11440 ft 321 kts 311°
2026-05-06 17:09 49.84913 9.40088 11136 ft 322 kts 330°
2026-05-06 17:10 49.86939 9.38602 10885 ft 322 kts 333°
2026-05-06 17:10 49.88983 9.37197 10770 ft 321 kts 333°
2026-05-06 17:10 49.91030 9.35806 10740 ft 321 kts 334°
2026-05-06 17:10 49.93079 9.34409 10293 ft 323 kts 333°
2026-05-06 17:11 49.95122 9.33011 9978 ft 317 kts 334°
2026-05-06 17:11 49.97122 9.31636 9748 ft 313 kts 334°
2026-05-06 17:11 49.99099 9.30286 9496 ft 307 kts 334°
2026-05-06 17:11 50.01028 9.28971 9211 ft 296 kts 333°
2026-05-06 17:12 50.02889 9.27718 8957 ft 290 kts 334°
2026-05-06 17:12 50.04731 9.26472 8708 ft 288 kts 333°
2026-05-06 17:12 50.05942 9.25631 8527 ft 287 kts 329°
2026-05-06 17:12 50.07919 9.22977 8185 ft 280 kts 306°
2026-05-06 17:13 50.09106 9.20574 7764 ft 281 kts 304°
2026-05-06 17:13 50.09896 9.18924 7483 ft 281 kts 303°
2026-05-06 17:13 50.10667 9.17317 7255 ft 280 kts 303°
2026-05-06 17:13 50.12384 9.13487 6724 ft 274 kts 293°
2026-05-06 17:14 50.12939 9.11360 6458 ft 270 kts 285°
2026-05-06 17:14 50.13493 9.08579 6147 ft 268 kts 284°
2026-05-06 17:15 50.13896 8.99850 5336 ft 258 kts 250°
2026-05-06 17:15 50.12122 8.92520 4627 ft 233 kts 248°
2026-05-06 17:16 50.11553 8.90196 4319 ft 224 kts 247°
2026-05-06 17:16 50.11006 8.88001 4199 ft 210 kts 248°
2026-05-06 17:16 50.10511 8.85929 4040 ft 201 kts 249°
2026-05-06 17:16 50.10043 8.83917 3810 ft 194 kts 249°
2026-05-06 17:17 50.09586 8.81981 3527 ft 186 kts 249°
2026-05-06 17:17 50.09147 8.80142 3293 ft 176 kts 249°
2026-05-06 17:17 50.08720 8.78399 3048 ft 169 kts 249°
2026-05-06 17:17 50.08318 8.76702 2833 ft 166 kts 249°
2026-05-06 17:18 50.07923 8.75028 2608 ft 165 kts 249°
2026-05-06 17:18 50.07523 8.73349 2395 ft 165 kts 249°
2026-05-06 17:18 50.07125 8.71698 2172 ft 163 kts 250°
2026-05-06 17:18 50.06730 8.70050 1952 ft 162 kts 250°
2026-05-06 17:19 50.06348 8.68445 1747 ft 152 kts 250°
2026-05-06 17:19 50.06007 8.66992 1554 ft 134 kts 251°
2026-05-06 17:19 50.05691 8.65677 1385 ft 128 kts 250°
2026-05-06 17:19 50.05375 8.64370 1197 ft 133 kts 250°
2026-05-06 17:20 50.05050 8.63018 1011 ft 131 kts 249°
2026-05-06 17:20 50.04734 8.61706 826 ft 132 kts 247°
2026-05-06 17:20 50.04418 8.60347 600 ft 132 kts 247°
2026-05-06 17:20 50.04090 8.59026 413 ft 130 kts 250°
2026-05-06 17:21 50.03786 8.57745 372 ft 118 kts 249°
2026-05-06 17:21 50.03557 8.56771 358 ft 72 kts 250°
2026-05-06 17:21 50.03443 8.56278 366 ft 29 kts 258°
2026-05-06 17:21 50.03445 8.55988 355 ft 27 kts 281°
2026-05-06 17:22 50.03472 8.55733 355 ft 18 kts 279°
2026-05-06 17:22 50.03503 8.55607 361 ft 10 kts 323°
2026-05-06 17:22 50.03519 8.55592 359 ft 4 kts 321°
2026-05-06 17:23 50.03474 8.55391 361 ft 15 kts 248°
2026-05-06 17:23 50.03433 8.55225 358 ft 17 kts 250°
2026-05-06 17:23 50.03393 8.55058 357 ft 16 kts 250°
2026-05-06 17:24 50.03355 8.54896 354 ft 16 kts 250°
2026-05-06 17:24 50.03316 8.54732 354 ft 16 kts 250°
2026-05-06 17:24 50.03277 8.54568 353 ft 16 kts 249°
2026-05-06 17:24 50.03304 8.54486 346 ft 8 kts 342°
2026-05-06 17:25 50.03351 8.54460 355 ft 6 kts 339°
2026-05-06 17:25 50.03369 8.54449 351 ft 0 kts 339°
2026-05-06 17:25 50.03387 8.54438 350 ft 6 kts 339°
2026-05-06 17:25 50.03440 8.54406 357 ft 9 kts 339°
2026-05-06 17:26 50.03521 8.54358 358 ft 15 kts 338°
2026-05-06 17:26 50.03583 8.54321 356 ft 0 kts 339°
2026-05-06 17:27 50.03597 8.54313 354 ft 7 kts 339°
2026-05-06 17:27 50.03648 8.54297 355 ft 7 kts 19°
2026-05-06 17:27 50.03675 8.54385 354 ft 13 kts 71°
2026-05-06 17:27 50.03713 8.54551 353 ft 19 kts 69°
2026-05-06 17:28 50.03767 8.54770 357 ft 25 kts 69°
2026-05-06 17:28 50.03831 8.55048 362 ft 30 kts 70°
2026-05-06 17:28 50.03907 8.55358 360 ft 24 kts 69°
2026-05-06 17:28 50.03973 8.55627 361 ft 27 kts 69°
2026-05-06 17:29 50.04034 8.55888 364 ft 25 kts 70°
2026-05-06 17:29 50.04092 8.56131 362 ft 23 kts 70°
2026-05-06 17:29 50.04145 8.56354 362 ft 21 kts 70°
2026-05-06 17:29 50.04191 8.56550 367 ft 17 kts 70°
2026-05-06 17:30 50.04202 8.56593 364 ft 5 kts 69°
2026-05-06 17:30 50.04223 8.56681 368 ft 12 kts 69°
2026-05-06 17:30 50.04253 8.56787 373 ft 9 kts 51°
2026-05-06 17:30 50.04302 8.56815 367 ft 9 kts
2026-05-06 17:31 50.04390 8.56841 371 ft 15 kts 11°
2026-05-06 17:31 50.04492 8.56869 367 ft 15 kts 13°
2026-05-06 17:31 50.04544 8.56900 371 ft 4 kts 54°
2026-05-06 17:31 50.04564 8.56973 369 ft 10 kts 62°
2026-05-06 17:32 50.04593 8.57048 369 ft 0 kts 59°
2026-05-06 17:32 50.04595 8.57055 369 ft 1 kts 59°
2026-05-06 17:32 50.04597 8.57059 369 ft 0 kts 59°